Regional Weather Roundup
Issued by NWS

Home | Current Version | Previous Version | Graphics & Text | Print | Product List | Glossary On
Versions: 1 2 3 4 5 6 7 8 9 10 11 12 13 14 15 16 17 18 19 20 21 22 23 24 25 26 27 28 29 30 31 32 33 34 35 36 37 38 39 40 41 42 43 44 45 46 47 48 49 50
000
ASUS43 KIND 061509
RWRIN

WEATHER ROUNDUP FOR INDIANA
NATIONAL WEATHER SERVICE INDIANAPOLIS IN
1100 AM EDT FRI MAY 06 2016

NOTE: "FAIR" INDICATES FEW OR NO CLOUDS BELOW 12,000 FEET WITH NO
SIGNIFICANT WEATHER AND/OR OBSTRUCTIONS TO VISIBILITY.

* - STATION DOES NOT REPORT WEATHER SUCH AS PRECIPITATION OR FOG.

+ - STATION NOT QUALITY CONTROLLED BY THE NATIONAL WEATHER SERVICE.
    USE DATA WITH CAUTION...ESPECIALLY DEWPOINT AND RELATIVE
    HUMIDITY OBSERVATIONS.

INZ001>003-010>013-019-020-061600-
NORTHWEST INDIANA

CITY           SKY/WX    TMP DP  RH WIND       PRES   REMARKS
GARY /AIRPORT/ MOSUNNY   66  50  55 W8        30.01S
KNOX *+        MOSUNNY   59  34  38 CALM      30.01S
LA PORTE +     SUNNY     65  41  41 W3        30.01S
MICHIGAN CITY+ MOSUNNY   63  43  48 W7        30.01F
MONTICELLO +   SUNNY     60  40  48 NW5       30.02S
RENSSELAER +   SUNNY     63  41  45 W6        30.03R
VALPARAISO     SUNNY     65  41  41 W9        30.02R

$$

LMZ046-743>745-061600-
SOUTHERN LAKE MICHIGAN

STATION/POSITION TIME  TEMP    WIND        PRES    WAVE
                       AIR SEA DIR/SP/G            HT
                 (UTC) (F)     (DEG/KT/KT) (MB)    (FT)
BURNS HARBOR     1400   56     230/  6/  7 1016.6S
MICHIGAN CITY    1400   54     200/  5/  6   N/A

$$

INZ004-005-014>016-021>024-061600-
NORTH CENTRAL INDIANA

CITY           SKY/WX    TMP DP  RH WIND       PRES   REMARKS
ELKHART        SUNNY     59  48  67 CALM      30.01S
GOSHEN         SUNNY     59  45  59 NW7       30.01S
LOGANSPORT +   SUNNY     59  45  58 NW3       30.03S
PERU/GRISSOM   SUNNY     60  45  57 N7        30.01S
ROCHESTER +    SUNNY     63  45  51 W3        30.02S
SOUTH BEND     MOSUNNY   61  44  53 W6        30.01F
WARSAW +       SUNNY     59  43  55 NW6       30.01S

$$

INZ006>009-017-018-025>027-061600-
NORTHEAST INDIANA

CITY           SKY/WX    TMP DP  RH WIND       PRES   REMARKS
ANGOLA *+        N/A     61  43  51 VRB3      29.99S
AUBURN +       SUNNY     59  43  55 NW6       30.01S
FORT WAYNE     MOSUNNY   61  45  55 N5        30.01S
HUNTINGTON +   SUNNY     59  38  46 NW6       30.01S

$$

INZ028-029-035-036-043>045-051>053-061600-
WEST CENTRAL INDIANA

CITY           SKY/WX    TMP DP  RH WIND       PRES   REMARKS
CRAWFORDSVL +  SUNNY     59  46  61 NW7       30.04S
GREENCASTLE +  SUNNY     61  45  55 N8        30.04S
LAFAYETTE      SUNNY     61  46  57 VRB6      30.03S
TERRE HAUTE    SUNNY     64  43  46 NW8       30.05R

$$

INZ030>032-037>040-046>048-054>057-064-065-061600-
CENTRAL INDIANA

CITY           SKY/WX    TMP DP  RH WIND       PRES   REMARKS
CP ATTERBURY + SUNNY     61  45  55 N10       30.04R
COLUMBUS       SUNNY     59  46  63 N9        30.03S
FISHERS *+     SUNNY     61  48  63 NW8       30.03S
FRANKFORT +      N/A     61  32  32 CALM      30.05R
GREENWOOD *+   SUNNY     61  45  55 N5        30.03S
INDIANAPOLIS   MOSUNNY   61  42  49 NW12      30.02S
-EAGLE CREEK   SUNNY     62  43  49 N6        30.02S
KOKOMO *+      SUNNY     61  45  55 N9        30.02S
MARION +       SUNNY     58  42  56 N8        30.02S
SHELBYVILLE    SUNNY     62  44  51 N14       30.02R
ZIONSVILLE +   SUNNY     58  44  60 NW7       30.04R

$$

INZ033-034-041-042-049-050-058-059-061600-
EAST CENTRAL INDIANA

CITY           SKY/WX    TMP DP  RH WIND       PRES   REMARKS
MUNCIE         SUNNY     60  41  49 N7        30.02R

$$

INZ060-061-067>069-081>083-085>088-061600-
SOUTHWEST INDIANA

CITY           SKY/WX    TMP DP  RH WIND       PRES   REMARKS
EVANSVILLE     SUNNY     63  43  48 NW7       30.07S
HUNTINGBURG *+ SUNNY     63  48  59 NW8       30.06R
WASHINGTON +   SUNNY     61  46  56 NW6       30.05S

$$

INZ062-063-066-070>080-084-089>092-061600-
SOUTH CENTRAL AND SOUTHEAST INDIANA

CITY           SKY/WX    TMP DP  RH WIND       PRES   REMARKS
BEDFORD +      SUNNY     61  52  72 NW3       30.04R
BLOOMINGTON    SUNNY     62  44  51 N8        30.04S
MADISON *+     SUNNY     59  41  51 NW6       30.04R
NORTH VERNON + SUNNY     61  50  67 CALM      30.03R
SEYMOUR +      SUNNY     63  45  51 N8G16     30.03R

$$





USA.gov is the U.S. government's official web portal to all federal, state and local government web resources and services.